2023/10/22 00:00:00, 1.8, 7.7
2023/10/22 00:10:00, 1.9, 7.6
2023/10/22 00:20:00, 1.9, 7.9
2023/10/22 00:30:00, 1.9, 7.7
2023/10/22 00:40:00, 1.8, 7.4
2023/10/22 00:50:00, 1.8, 7.7
2023/10/22 01:00:00, 1.8, 7.6
2023/10/22 01:10:00, 1.8, 7.4
2023/10/22 01:20:00, 1.9, 7.5
2023/10/22 01:30:00, 1.7, 7.6
2023/10/22 01:40:00, 1.8, 7.5
2023/10/22 01:50:00, 1.9, 7.1
2023/10/22 02:00:00, 2.0, 7.0
2023/10/22 02:10:00, 1.9, 7.0
2023/10/22 02:20:00, 2.0, 7.2
2023/10/22 02:30:00, 2.1, 7.0
2023/10/22 02:40:00, 2.2, 6.8
2023/10/22 02:50:00, 2.2, 7.0
2023/10/22 03:00:00, 2.0, 6.7
2023/10/22 03:10:00, 2.2, 6.7
2023/10/22 03:20:00, 2.1, 6.6
2023/10/22 03:30:00, 2.3, 6.2
2023/10/22 03:40:00, 2.9, 6.5
2023/10/22 03:50:00, 3.1, 6.3
2023/10/22 04:00:00, 2.9, 6.3
2023/10/22 04:10:00, 2.7, 6.0
2023/10/22 04:20:00, 2.7, 6.0
2023/10/22 04:30:00, 2.5, 5.8
2023/10/22 04:40:00, 2.4, 5.7
2023/10/22 04:50:00, 2.6, 5.8
2023/10/22 05:00:00, 2.5, 6.0
2023/10/22 05:10:00, 2.4, 6.0
2023/10/22 05:20:00, 2.3, 6.0
2023/10/22 05:30:00, 2.3, 5.7
2023/10/22 05:40:00, 2.3, 5.7
2023/10/22 05:50:00, 2.3, 5.5
2023/10/22 06:00:00, 2.3, 5.3
2023/10/22 06:10:00, 2.3, 5.0
2023/10/22 06:20:00, 2.3, 5.5
2023/10/22 06:30:00, 2.3, 5.5
2023/10/22 06:40:00, 2.2, 5.5
2023/10/22 06:50:00, 2.2, 5.4
2023/10/22 07:00:00, 2.3, 5.6
2023/10/22 07:10:00, 2.3, 6.0
2023/10/22 07:20:00, 2.3, 6.0
2023/10/22 07:30:00, 2.3, 6.5
2023/10/22 07:40:00, 2.1, 9.2
2023/10/22 07:50:00, 3.3,12.8
2023/10/22 08:00:00, 0.0,13.8
2023/10/22 08:10:00,307.5,15.1
2023/10/22 08:20:00,308.6,14.8
2023/10/22 08:30:00,309.2,16.6
2023/10/22 08:40:00,309.6,18.5
2023/10/22 08:50:00,309.6,19.7
2023/10/22 09:00:00,309.7,19.0
2023/10/22 09:10:00,310.0,18.8
2023/10/22 09:20:00,310.0,17.6
2023/10/22 09:30:00,309.4,17.8
2023/10/22 09:40:00,171.7,16.3
2023/10/22 09:50:00, 0.4,15.7
2023/10/22 10:00:00, 0.3,14.9
2023/10/22 10:10:00, 0.3,14.8
2023/10/22 10:20:00, 0.3,14.7
2023/10/22 10:30:00, 0.2,14.8
2023/10/22 10:40:00, 0.5,15.2
2023/10/22 10:50:00, 0.4,15.0
2023/10/22 11:00:00, 0.2,15.5
2023/10/22 11:10:00, 0.1,16.1
2023/10/22 11:20:00, 0.3,15.4
2023/10/22 11:30:00, 0.2,16.0
2023/10/22 11:40:00, 0.2,15.9
2023/10/22 11:50:00, 0.1,15.4
2023/10/22 12:00:00, 0.1,16.9
2023/10/22 12:10:00, 0.1,16.4
2023/10/22 12:20:00, 0.1,16.3
2023/10/22 12:30:00, 0.0,16.7
2023/10/22 12:40:00, 0.2,15.9
2023/10/22 12:50:00, 0.1,16.4
2023/10/22 13:00:00, 0.1,17.3
2023/10/22 13:10:00, 0.2,16.9
2023/10/22 13:20:00, 0.3,15.5
2023/10/22 13:30:00, 0.4,18.0
2023/10/22 13:40:00, 0.3,16.5
2023/10/22 13:50:00, 0.4,17.3
2023/10/22 14:00:00, 0.3,18.2
2023/10/22 14:10:00, 0.4,16.0
2023/10/22 14:20:00, 0.4,16.8
2023/10/22 14:30:00, 0.3,16.7
2023/10/22 14:40:00, 0.4,16.3
2023/10/22 14:50:00, 0.6,17.6
2023/10/22 15:00:00, 0.6,16.4
2023/10/22 15:10:00, 0.7,16.0
2023/10/22 15:20:00, 0.8,15.2
2023/10/22 15:30:00, 0.8,14.6
2023/10/22 15:40:00, 0.9,13.7
2023/10/22 15:50:00, 0.9,13.9
2023/10/22 16:00:00, 0.9,13.5
2023/10/22 16:10:00, 0.9,13.4
2023/10/22 16:20:00, 0.9,13.2
2023/10/22 16:30:00, 0.9,12.8
2023/10/22 16:40:00, 1.0,12.8
2023/10/22 16:50:00, 0.9,11.9
2023/10/22 17:00:00, 0.9,11.2
2023/10/22 17:10:00, 0.9,10.8
2023/10/22 17:20:00, 0.8,10.6
2023/10/22 17:30:00, 0.7,10.2
2023/10/22 17:40:00, 0.7,10.1
2023/10/22 17:50:00, 0.7, 9.8
2023/10/22 18:00:00, 0.8, 9.6
2023/10/22 18:10:00, 0.9, 9.6
2023/10/22 18:20:00, 1.0, 9.6
2023/10/22 18:30:00, 0.9, 9.2
2023/10/22 18:40:00, 0.9, 9.1
2023/10/22 18:50:00, 0.8, 9.1
2023/10/22 19:00:00, 0.9, 9.1
2023/10/22 19:10:00, 1.0, 8.8
2023/10/22 19:20:00, 1.0, 8.8
2023/10/22 19:30:00, 1.0, 8.7
2023/10/22 19:40:00, 0.9, 8.7
2023/10/22 19:50:00, 0.9, 8.6
2023/10/22 20:00:00, 1.0, 8.5
2023/10/22 20:10:00, 1.0, 8.5
2023/10/22 20:20:00, 1.1, 8.3
2023/10/22 20:30:00, 1.1, 8.5
2023/10/22 20:40:00, 1.2, 8.5
2023/10/22 20:50:00, 1.1, 8.5
2023/10/22 21:00:00, 1.1, 8.5
2023/10/22 21:10:00, 1.1, 8.7
2023/10/22 21:20:00, 1.1, 8.9
2023/10/22 21:30:00, 1.0, 8.7
2023/10/22 21:40:00, 1.0, 8.9
2023/10/22 21:50:00, 1.0, 9.0
2023/10/22 22:00:00, 1.0, 8.8
2023/10/22 22:10:00, 1.0, 9.0
2023/10/22 22:20:00, 1.1, 9.3
2023/10/22 22:30:00, 1.2, 9.0
2023/10/22 22:40:00, 1.1, 9.2
2023/10/22 22:50:00, 1.1, 9.3
2023/10/22 23:00:00, 1.0, 9.2
2023/10/22 23:10:00, 1.0, 9.1
2023/10/22 23:20:00, 1.0, 9.1
2023/10/22 23:30:00, 1.0, 9.2
2023/10/22 23:40:00, 1.0, 9.2
2023/10/22 23:50:00, 1.0, 9.5
